Regional Weather Roundup
Issued by NWS

Home | Current Version | Previous Version | Graphics & Text | Print | Product List | Glossary Off
Versions: 1 2 3 4 5 6 7 8 9 10 11 12 13 14 15 16 17 18 19 20 21 22 23 24 25 26 27 28 29 30 31 32 33 34 35 36 37 38 39 40 41 42 43 44 45 46 47 48 49 50

000
ASUS43 KDMX 221206
RWRIA

WEATHER ROUNDUP FOR IOWA
NATIONAL WEATHER SERVICE DES MOINES IA
700 AM CDT SUN APR 22 2018

NOTE: "FAIR" INDICATES FEW OR NO CLOUDS BELOW 12,000 FEET WITH NO
SIGNIFICANT WEATHER AND/OR OBSTRUCTIONS TO VISIBILITY.

* - THESE STATIONS ARE NOT NWS STATIONS...THUS NOT UNDER NWS
QUALITY CONTROL.  THEY ALSO DO NOT REPORT WEATHER SUCH
AS PRECIPITATION OR FOG.

IAZ001>003-012>014-020>022-031>034-043>046-221300-
   NORTHWEST IOWA

CITY           SKY/WX    TMP DP  RH WIND       PRES   REMARKS
CARROLL *      CLOUDY    37  34  87 N5        30.26R WCI  34
CHEROKEE *     PTCLDY    37  34  92 N3        30.28S
DENISON *      PTCLDY    37  32  81 NE5       30.26S WCI  34
LE MARS *      PTCLDY    36  32  87 CALM      30.27S
ORANGE CITY *  PTCLDY    39  37  93 NE6       30.27S WCI  35
SHELDON *      CLEAR     34  34 100 NE9       30.27S WCI  26
SIOUX CITY     CLOUDY    37  30  75 NE3       30.26S
6HR MIN TEMP:  33; 6HR MAX TEMP:  42;

SPENCER        PTCLDY    34  30  85 E3        30.29S
6HR MIN TEMP:  33; 6HR MAX TEMP:  44;

STORM LAKE *   CLOUDY    37  36  93 NE9       30.27R WCI  31
$$

IAZ055>058-069>071-079>083-090>094-221300-
   SOUTHWEST IOWA

CITY           SKY/WX    TMP DP  RH WIND       PRES   REMARKS
ATLANTIC *     MOCLDY    46  32  57 E9        30.22S
AUDUBON *      CLOUDY    39  34  81 CALM      30.25R
CLARINDA *     MOCLDY    48  32  53 E5        30.22R
COUNCIL BLFS * CLOUDY    45  34  65 NE7       30.21R
CRESTON *      CLOUDY    46  32  57 E13       30.22R
HARLAN  *      CLOUDY    45  34  65 NE6       30.26R
LAMONI         CLOUDY    47  31  53 NE12      30.18S
6HR MIN TEMP:  47; 6HR MAX TEMP:  50;

RED OAK *      CLOUDY    46  32  57 NE9       30.21R
SHENANDOAH *   CLOUDY    45  32  61 NE7       30.20R
$$

IAZ047>049-059>061-072>074-084-221300-
   CENTRAL IOWA

CITY           SKY/WX    TMP DP  RH WIND       PRES   REMARKS
AMES           PTCLDY    40  32  73 E6        30.28R
6HR MIN TEMP:  39; 6HR MAX TEMP:  48;

ANKENY *       CLOUDY    43  32  65 NE6       30.28R
BOONE *        MOCLDY    39  34  81 E10       30.27R WCI  32
CHARITON *     CLOUDY    46  32  57 E10       30.22S
DES MOINES     CLOUDY    47  30  51 E9        30.26R
6HR MIN TEMP:  46; 6HR MAX TEMP:  50;

GRINNELL*      CLOUDY    42  32  67 E12       30.29R
KNOXVILLE *    CLOUDY    46  28  49 E13       30.24R
MARSHALLTOWN   PTCLDY    41  32  70 E9        30.28R
6HR MIN TEMP:  40; 6HR MAX TEMP:  46;

NEWTON *       CLOUDY    45  32  61 E12       30.27S
PELLA *        CLOUDY    47  28  48 E7        30.27R
PERRY *        CLOUDY    40  30  67 NE6       30.26R
$$

IAZ004>006-015-016-023>025-035-036-221300-
   NORTH CENTRAL IOWA

CITY           SKY/WX    TMP DP  RH WIND       PRES   REMARKS
ALGONA *       CLOUDY    39  34  81 E7        30.31R WCI  34
CLARION *      PTCLDY    41  36  81 E12       30.30R
ESTHERVILLE    CLOUDY    32  30  92 NE3       30.30R
6HR MIN TEMP:  30; 6HR MAX TEMP:  36;

FORT DODGE *   PTCLDY    37  34  89 E9        30.29R WCI  30
MASON CITY     CLOUDY    36  33  89 NE5       30.33R WCI  32
6HR MIN TEMP:  35; 6HR MAX TEMP:  39;

FOREST CITY *  MOCLDY    37  34  87 CALM      30.32R
WEBSTER CITY * CLOUDY    39  36  87 E9        30.26S WCI  33
IOWA FALLS *   FAIR      43  35  75 NE7       30.31R
$$

IAZ007>011-017>019-026>030-037>042-050>054-066-221300-
   NORTHEAST IOWA

CITY           SKY/WX    TMP DP  RH WIND       PRES   REMARKS
CEDAR RAPIDS   FAIR      45  25  45 E10       30.29R
6HR MIN TEMP:  43; 6HR MAX TEMP:  47;

CHARLES CITY * CLOUDY    41  37  87 E7        30.33R
CLINTON *        N/A     44  25  47 E13       30.33R
DECORAH *      CLOUDY    41  34  75 CALM      30.32S
DUBUQUE        FAIR      41  29  62 NE6       30.33R
6HR MIN TEMP:  40; 6HR MAX TEMP:  47;

MONTICELLO *   FAIR      43  28  56 NE5       30.32R
OELWEIN *      FAIR      41  37  87 NE7       30.33R
WATERLOO       FAIR      39  33  79 E5        30.31R
6HR MIN TEMP:  38; 6HR MAX TEMP:  45;

$$

IAZ064-065-067-068-078-221300-
   EAST CENTRAL IOWA

CITY           SKY/WX    TMP DP  RH WIND       PRES   REMARKS
DAVENPORT      FAIR      44  22  41 E12       30.33R
6HR MIN TEMP:  43; 6HR MAX TEMP:  48;

IOWA CITY      FAIR      47  23  38 NE10      30.31R
6HR MIN TEMP:  46; 6HR MAX TEMP:  51;

MT. PLEASANT * CLOUDY    43  30  61 NE10      30.26R
MUSCATINE *    FAIR      48  25  40 E10       30.30R
QUAD CITIES    FAIR      46  25  43 E10       30.30R
6HR MIN TEMP:  43; 6HR MAX TEMP:  50;

$$

IAZ062-063-075>077-085>089-095>099-221300-
   SOUTHEAST IOWA

CITY           SKY/WX    TMP DP  RH WIND       PRES   REMARKS
BURLINGTON     CLOUDY    47  28  47 E12       30.26R
6HR MIN TEMP:  47; 6HR MAX TEMP:  50;

FAIRFIELD *    CLOUDY    46  28  49 E13       30.25S
FORT MADISON * CLOUDY    46  30  53 E10       30.26R
KEOKUK *       CLOUDY    48  30  49 E17G23    30.22F
OSKALOOSA *    CLOUDY    45  29  53 E12       30.26R
CENTERVILLE *    N/A     46  30  53 NE13      30.22S
OTTUMWA        CLOUDY    45  29  53 E13       30.25R
6HR MIN TEMP:  44; 6HR MAX TEMP:  50;

WASHINGTON *   CLOUDY    45  30  57 NE9       30.28S
$$

ABBREVIATIONS USED IN REMARKS
   TC - TEMPERATURES IN CELSIUS
  WCI - WIND CHILL INDEX
   HX - HEAT INDEX
  VSB - VISIBILITY
$$





USA.gov is the U.S. government's official web portal to all federal, state and local government web resources and services.